Vorticity
11 10 10 9 9 10 9 10 9 9 9 9 9 8 8 5 5 7 8 8 6 6 8 6 9 9 8 5 5 6 4 -1 -1 3 -1 -8 15 31 9 1 11 8 8 9 1
6 6 6 5 5 5 6 7 9 9 9 10 9 9 10 8 8 5 5 7 10 5 7 8 8 7 10 4 6 6 1 2 2 4 4 -3 -1 -11 10 4 6 3 10 -3 -1
5 5 4 4 5 5 5 5 5 5 7 8 10 10 9 12 11 12 9 7 12 9 7 8 7 5 5 7 5 2 -1 4 1 4 4 5 5 3 8 13 -5 3 3 11 7
8 8 8 7 7 5 4 5 7 5 5 5 6 7 10 10 18 25 28 29 18 18 14 9 6 7 5 2 4 3 6 4 4 5 6 4 3 5 6 12 8 1 -1 -2 7
7 7 7 8 8 7 8 8 5 5 7 6 5 6 6 6 9 -1 -17 -15 3 9 21 19 12 8 7 7 7 4 4 5 5 5 5 6 6 7 4 13 7 16 -2 3 2
8 9 9 10 11 12 13 11 7 10 8 7 7 5 5 0 20 32 13 12 8 -2 -9 17 15 13 7 18 6 7 18 25 12 4 4 6 6 -2 4 5 8 6 9 13 1
8 9 9 10 10 9 10 10 15 18 8 11 8 8 5 9 -5 -12 -11 9 26 13 11 2 18 7 23 5 9 9 10 2 2 -5 4 10 7 7 8 7 7 7 10 10 15
8 7 7 7 6 6 6 7 8 10 18 14 12 9 5 2 6 8 20 5 12 4 20 2 2 11 -2 19 23 14 15 21 26 30 17 9 -1 8 5 19 30 39 22 15 17
5 6 6 8 9 10 10 10 11 13 20 27 14 14 14 20 31 33 26 14 4 15 4 25 8 -4 6 3 4 14 -2 13 18 11 8 12 11 24 36 32 25 23 22 16 13
5 5 6 11 11 9 10 10 11 27 41 48 24 23 4 -37 -6 -16 2 38 20 16 11 -2 12 10 -0 6 -12 -9 11 8 -7 -4 10 5 6 -4 -1 -4 1 6 8 5 6
5 6 12 12 9 8 9 11 29 37 36 9 -10 51 -7 -11 15 33 33 10 20 22 18 11 -1 2 9 -1 -9 -16 8 6 12 20 15 2 6 6 8 7 7 7 8 7 5
7 11 11 9 8 11 12 30 14 4 3 28 7 22 3 23 11 6 10 15 8 19 14 13 10 10 4 20 9 9 6 1 -0 -10 -12 -1 -1 2 10 15 14 14 11 11 14
10 10 10 9 13 10 23 1 7 22 12 15 40 35 26 17 1 -12 9 8 10 9 24 1 9 29 8 7 4 5 6 5 -9 6 5 8 29 40 49 38 31 26 29 22 12
10 10 10 10 10 11 0 11 1 -5 52 24 45 28 46 21 13 18 -8 13 1 4 9 29 16 -23 36 39 16 2 8 2 4 9 -0 9 0 -10 -19 29 45 5 6 6 14
9 11 9 10 9 16 14 -8 -3 38 15 27 6 5 21 40 31 41 23 -6 -20 -7 3 11 18 30 5 -9 22 12 27 26 30 23 13 24 6 31 36 -25 -13 26 2 0 18
9 10 9 9 11 21 10 7 16 42 -4 2 -2 4 20 22 14 33 29 33 33 19 5 -1 -6 4 29 36 13 -0 12 11 10 9 18 10 -16 32 23 32 10 -23 6 -1 5
10 9 9 8 10 12 23 43 16 6 20 -12 -0 50 16 14 16 5 31 10 7 -2 8 12 6 -9 4 3 25 14 -3 4 5 8 6 16 20 -35 4 -20 -8 2 0 4 11
8 9 10 9 10 12 31 1 16 -4 18 1 27 20 10 16 37 9 15 14 27 5 67 11 36 30 -15 -12 -17 6 -9 -7 6 5 12 23 13 18 30 10 -10 7 12 12 0
7 9 11 8 12 14 30 2 5 -1 -17 2 39 10 11 36 21 8 7 7 25 -0 11 18 12 59 30 61 -5 38 -6 -8 -5 -1 3 4 -0 -10 -3 17 19 3 -8 1 14
9 10 8 10 15 16 23 14 -0 -0 -1 10 25 5 1 12 12 14 10 13 3 12 7 13 7 21 9 30 34 -16 13 19 16 10 10 24 16 -8 -19 7 12 11 -6 5 16
14 12 9 9 12 12 15 16 3 -10 12 14 5 12 6 7 8 14 20 -8 12 22 12 10 0 14 -3 18 33 27 -12 7 19 -27 2 7 11 11 8 -12 -7 16 8 -7 5
19 12 11 10 10 7 18 11 10 18 14 9 8 8 -6 8 8 3 2 13 11 14 4 14 14 11 9 7 6 14 13 25 -13 10 21 -5 1 25 11 20 1 1 4 10 12
19 14 9 14 8 5 6 6 28 15 10 12 16 5 8 6 18 6 -4 4 11 22 9 9 12 10 17 21 23 10 11 10 26 11 10 -10 0 -8 -7 4 2 12 9 5 7
13 19 11 16 12 6 4 -4 17 17 2 4 7 15 9 12 8 2 9 -0 9 24 11 12 13 3 -3 7 -3 8 15 16 10 8 7 -4 -6 -1 2 7 4 1 3 2 4
3 4 15 8 -6 8 6 7 1 10 2 6 5 10 5 6 23 3 7 1 15 7 18 9 16 13 14 9 10 5 10 4 8 14 2 11 9 2 0 4 5 12 11 2 -9
4 -1 0 22 18 8 9 -2 8 -3 15 8 1 11 7 12 1 1 10 12 16 3 4 17 4 8 22 9 20 14 18 9 4 -10 4 -1 -5 -2 5 12 7 11 2 5 10
-2 8 5 1 15 17 10 4 -1 2 13 14 -1 11 8 -4 4 4 14 15 -3 3 -2 15 1 11 14 11 4 24 20 5 6 11 19 16 5 6 6 8 9 17 23 21 25
Height
3093 3092 3092 3090 3089 3088 3088 3087 3085 3084 3082 3082 3082 3082 3083 3083 3083 3083 3087 3090 3092 3090 3091 3095 3096 3097 3097 3098 3100 3103 3100 3094 3099 3105 3106 3108 3110 3111 3113 3115 3117 3117 3118 3120 3121
3090 3088 3087 3086 3085 3083 3083 3081 3079 3078 3076 3075 3073 3074 3074 3075 3075 3078 3080 3081 3086 3085 3085 3088 3090 3092 3091 3092 3092 3094 3089 3088 3095 3101 3103 3104 3106 3109 3110 3111 3113 3115 3115 3116 3117
3086 3085 3083 3082 3080 3078 3077 3075 3074 3072 3070 3070 3068 3067 3066 3067 3066 3070 3071 3073 3075 3077 3078 3081 3082 3082 3084 3084 3084 3084 3077 3086 3090 3097 3099 3099 3099 3101 3103 3105 3110 3111 3112 3112 3114
3081 3079 3078 3076 3075 3073 3071 3070 3068 3066 3064 3062 3060 3059 3059 3062 3062 3061 3064 3064 3066 3068 3069 3072 3073 3074 3074 3075 3079 3077 3077 3080 3086 3091 3091 3092 3094 3092 3095 3099 3105 3105 3106 3108 3109
3076 3074 3071 3069 3067 3066 3064 3062 3060 3059 3058 3056 3053 3051 3051 3050 3051 3061 3058 3059 3061 3061 3063 3064 3065 3067 3068 3070 3073 3069 3072 3076 3080 3084 3084 3085 3084 3087 3084 3092 3098 3098 3098 3101 3103
3071 3067 3064 3061 3059 3057 3055 3053 3051 3051 3051 3047 3044 3042 3040 3034 3050 3050 3048 3052 3053 3055 3057 3058 3058 3063 3064 3063 3065 3064 3067 3070 3072 3076 3077 3077 3077 3078 3077 3088 3090 3091 3093 3095 3097
3062 3059 3056 3053 3050 3048 3045 3043 3043 3042 3041 3037 3035 3031 3026 3023 3039 3040 3041 3044 3043 3047 3050 3054 3056 3056 3057 3056 3057 3058 3060 3063 3064 3068 3070 3074 3067 3067 3076 3080 3080 3083 3086 3088 3090
3056 3053 3050 3046 3042 3039 3035 3032 3031 3031 3028 3028 3025 3021 3007 3015 3029 3030 3034 3031 3036 3037 3041 3048 3050 3051 3050 3053 3052 3052 3054 3054 3057 3062 3065 3071 3050 3066 3069 3071 3073 3076 3079 3081 3082
3048 3045 3041 3037 3033 3028 3024 3020 3016 3014 3013 3015 3012 3011 3001 3007 3014 3016 3019 3020 3024 3029 3032 3039 3042 3044 3046 3049 3049 3044 3045 3048 3053 3056 3061 3061 3052 3058 3064 3064 3068 3070 3072 3073 3075
3041 3038 3033 3028 3023 3017 3012 3007 3002 2996 2992 2995 2996 2999 2998 3002 3003 3005 3008 3011 3015 3019 3024 3029 3032 3035 3037 3040 3033 3042 3042 3046 3048 3053 3054 3053 3048 3054 3058 3058 3061 3063 3065 3067 3068
3035 3031 3025 3020 3016 3011 3006 2999 2994 2988 2986 2987 2983 2978 2987 2993 2996 2998 3001 3005 3007 3010 3013 3020 3025 3018 3022 3030 3037 3041 3042 3042 3044 3047 3048 3047 3046 3048 3050 3051 3053 3056 3058 3059 3061
3029 3025 3019 3015 3011 3006 3002 2996 2991 2984 2966 2973 2969 2967 2973 2984 2986 2991 2995 3000 3001 3003 3008 3017 3009 3021 3023 3028 3031 3036 3038 3037 3041 3043 3045 3040 3035 3038 3041 3042 3046 3048 3049 3051 3052
3024 3019 3015 3011 3008 3004 2998 2994 2988 2983 2973 2957 2956 2956 2964 2974 2974 2984 2988 2992 2995 2998 3000 3006 3012 3016 3019 3022 3026 3028 3030 3034 3037 3040 3038 3035 3024 3029 3032 3035 3037 3039 3041 3042 3040
3019 3014 3011 3008 3006 3000 2996 2991 2986 2981 2975 2957 2950 2952 2955 2960 2963 2975 2982 2988 2991 2994 2999 3002 3006 3010 3013 3014 3020 3022 3025 3029 3033 3037 3035 3032 3022 3024 3027 3029 3030 3032 3033 3035 3035
3014 3011 3008 3003 3001 2995 2993 2990 2987 2984 2979 2964 2957 2957 2955 2957 2960 2965 2972 2979 2983 2989 2996 2997 3001 3005 3009 3009 3015 3015 3021 3024 3027 3031 3030 3028 3029 3019 3021 3025 3025 3025 3027 3029 3029
3012 3008 3005 3002 2997 2992 2988 2988 2984 2986 2975 2965 2959 2957 2957 2957 2959 2960 2965 2970 2978 2987 2991 2995 2999 3002 3005 3008 3011 3014 3018 3022 3023 3027 3024 3021 3024 3014 3018 3018 3019 3022 3023 3023 3022
3008 3005 3002 2998 2994 2988 2987 2984 2984 2983 2977 2971 2960 2956 2955 2958 2959 2960 2962 2966 2974 2982 2985 2991 2995 2999 3003 3005 3006 3010 3016 3020 3022 3023 3013 3014 3017 3011 3014 3015 3018 3019 3018 3017 3015
3005 3002 3000 2995 2992 2988 2987 2985 2985 2983 2979 2972 2966 2959 2958 2958 2960 2962 2965 2970 2973 2977 2979 2986 2992 2991 2995 2998 3002 3004 3008 3010 3011 3011 3008 3011 3010 3008 3010 3012 3012 3011 3013 3011 3009
3001 2999 2997 2994 2991 2988 2990 2988 2990 2988 2984 2974 2971 2964 2962 2960 2962 2964 2967 2971 2973 2976 2979 2982 2984 2982 2987 2991 2999 3001 3002 3009 3008 3009 3009 3006 3005 3006 3008 3009 3007 3007 3007 3006 3004
2998 2997 2995 2993 2990 2988 2989 2990 2990 2989 2986 2982 2976 2976 2970 2964 2963 2963 2968 2973 2974 2975 2977 2981 2983 2983 2985 2987 2992 2997 3003 3006 3008 3006 3004 2999 3000 3001 3003 3004 3003 3003 3002 2999 2996
2994 2994 2993 2992 2990 2990 2990 2990 2989 2989 2988 2987 2982 2977 2976 2973 2970 2969 2971 2972 2973 2974 2977 2981 2982 2985 2985 2987 2989 2994 2997 2999 3001 3002 2998 2997 2997 2998 3000 3000 2999 2997 2994 2991 2988
2991 2992 2991 2991 2992 2990 2991 2990 2989 2989 2989 2987 2986 2983 2981 2978 2976 2975 2975 2975 2974 2975 2976 2978 2981 2982 2985 2986 2988 2990 2993 2995 2996 2998 2998 2998 2996 2995 2995 2995 2993 2991 2987 2984 2982
2990 2990 2990 2990 2990 2990 2992 2992 2989 2989 2989 2988 2987 2985 2983 2982 2981 2978 2978 2978 2976 2976 2977 2978 2980 2981 2982 2985 2985 2986 2988 2990 2991 2993 2993 2996 2994 2992 2991 2990 2988 2986 2983 2980 2977
2991 2990 2990 2990 2990 2991 2991 2993 2991 2990 2990 2989 2988 2986 2984 2982 2981 2980 2979 2979 2978 2976 2976 2977 2978 2979 2980 2980 2982 2984 2985 2987 2988 2989 2988 2988 2989 2989 2988 2987 2986 2983 2980 2977 2972
2991 2991 2991 2992 2991 2992 2992 2993 2992 2991 2990 2989 2988 2987 2985 2983 2981 2980 2979 2978 2978 2977 2976 2976 2976 2977 2976 2977 2979 2981 2982 2984 2984 2984 2985 2985 2984 2985 2984 2983 2982 2980 2976 2972 2970
2991 2992 2991 2991 2991 2992 2992 2993 2991 2991 2990 2989 2988 2986 2985 2983 2983 2980 2979 2978 2977 2976 2975 2975 2975 2975 2975 2975 2977 2978 2978 2979 2980 2981 2981 2981 2982 2981 2980 2980 2979 2977 2974 2970 2967
2989 2990 2990 2991 2990 2990 2991 2991 2990 2989 2989 2987 2986 2984 2983 2982 2980 2979 2978 2977 2976 2976 2975 2975 2975 2975 2975 2975 2975 2976 2973 2974 2976 2977 2977 2978 2979 2978 2978 2978 2977 2973 2971 2968 2965